Time,TemperatureF,DewpointF,PressureIn,WindDirection,WindDirectionDegrees,WindSpeedMPH,WindSpeedGustMPH,Humidity,HourlyPrecipIn,Conditions,Clouds,dailyrainin,SoftwareType,DateUTC
2013-01-07 00:03:00,44.8,41.4,30.16,SSW,200,4.0,12.0,88,0.00,,,0.09,meteohub,2013-01-06 23:03:00,
2013-01-07 00:08:00,44.8,41.4,30.16,South,176,1.0,12.0,88,0.00,,,0.00,meteohub,2013-01-06 23:08:00,
2013-01-07 00:14:00,44.8,41.4,30.16,SSW,211,2.0,9.0,88,0.00,,,0.00,meteohub,2013-01-06 23:14:00,
2013-01-07 00:19:00,44.8,41.4,30.16,South,182,1.0,9.0,88,0.00,,,0.00,meteohub,2013-01-06 23:19:00,
2013-01-07 00:24:00,44.8,41.4,30.16,South,183,0.0,9.0,88,0.00,,,0.00,meteohub,2013-01-06 23:24:00,
2013-01-07 00:29:00,44.8,41.4,30.16,South,175,1.0,8.0,88,0.00,,,0.00,meteohub,2013-01-06 23:29:00,
2013-01-07 00:34:00,44.6,41.5,30.16,SSW,196,1.0,7.0,89,0.00,,,0.00,meteohub,2013-01-06 23:34:00,
2013-01-07 00:39:00,44.6,41.5,30.16,SSE,161,3.0,7.0,89,0.00,,,0.00,meteohub,2013-01-06 23:39:00,
2013-01-07 00:44:00,44.4,41.4,30.16,SSW,195,1.0,7.0,89,0.00,,,0.00,meteohub,2013-01-06 23:44:00,
2013-01-07 00:49:00,44.6,41.5,30.16,South,173,2.0,7.0,89,0.00,,,0.00,meteohub,2013-01-06 23:49:00,
2013-01-07 00:55:00,44.4,41.4,30.16,SSE,154,6.0,7.0,89,0.00,,,0.00,meteohub,2013-01-06 23:55:00,
2013-01-07 01:00:00,44.6,41.2,30.16,SSE,159,5.0,7.0,88,0.00,,,0.00,meteohub,2013-01-07 00:00:00,
2013-01-07 01:05:00,44.8,41.4,30.16,South,182,4.0,13.0,88,0.00,,,0.00,meteohub,2013-01-07 00:05:00,
2013-01-07 01:10:00,44.8,41.2,30.16,SSE,157,2.0,13.0,87,0.00,,,0.00,meteohub,2013-01-07 00:10:00,
2013-01-07 01:15:00,44.8,41.2,30.17,SSE,162,2.0,9.0,87,0.00,,,0.00,meteohub,2013-01-07 00:15:00,
2013-01-07 01:20:00,44.8,41.2,30.17,SSE,158,1.0,9.0,87,0.00,,,0.00,meteohub,2013-01-07 00:20:00,
2013-01-07 01:26:00,44.8,41.2,30.17,South,170,1.0,9.0,87,0.00,,,0.00,meteohub,2013-01-07 00:26:00,
2013-01-07 01:31:00,44.8,41.2,30.17,South,170,1.0,10.0,87,0.00,,,0.00,meteohub,2013-01-07 00:31:00,
2013-01-07 01:36:00,44.6,41.0,30.17,SSE,159,4.0,10.0,87,0.00,,,0.00,meteohub,2013-01-07 00:36:00,
2013-01-07 01:41:00,44.6,41.0,30.17,SSE,164,2.0,13.0,87,0.00,,,0.00,meteohub,2013-01-07 00:41:00,
2013-01-07 01:46:00,44.6,41.0,30.17,South,183,2.0,13.0,87,0.00,,,0.00,meteohub,2013-01-07 00:46:00,
2013-01-07 01:52:00,44.6,41.0,30.17,SSW,197,1.0,13.0,87,0.00,,,0.00,meteohub,2013-01-07 00:52:00,
2013-01-07 01:57:00,44.4,40.8,30.17,South,184,3.0,12.0,87,0.00,,,0.00,meteohub,2013-01-07 00:57:00,
2013-01-07 02:02:00,44.4,40.8,30.17,South,169,7.0,12.0,87,0.00,,,0.00,meteohub,2013-01-07 01:02:00,
2013-01-07 02:07:00,44.4,40.8,30.17,SSE,154,3.0,9.0,87,0.00,,,0.00,meteohub,2013-01-07 01:07:00,
2013-01-07 02:12:00,44.4,40.8,30.17,SSE,167,5.0,9.0,87,0.00,,,0.00,meteohub,2013-01-07 01:12:00,
2013-01-07 02:17:00,44.2,41.0,30.17,SSE,168,2.0,9.0,88,0.00,,,0.00,meteohub,2013-01-07 01:17:00,
2013-01-07 02:22:00,44.2,41.0,30.18,South,169,2.0,9.0,88,0.00,,,0.00,meteohub,2013-01-07 01:22:00,
2013-01-07 02:28:00,44.2,41.0,30.17,South,174,2.0,9.0,88,0.00,,,0.00,meteohub,2013-01-07 01:28:00,
2013-01-07 02:33:00,44.2,41.0,30.18,SSE,162,5.0,9.0,88,0.00,,,0.00,meteohub,2013-01-07 01:33:00,
2013-01-07 02:38:00,44.2,41.0,30.18,South,175,2.0,8.0,88,0.00,,,0.00,meteohub,2013-01-07 01:38:00,
2013-01-07 02:43:00,44.1,41.0,30.18,SSE,161,4.0,8.0,89,0.00,,,0.00,meteohub,2013-01-07 01:43:00,
2013-01-07 02:48:00,44.1,41.0,30.18,SSW,194,4.0,7.0,89,0.00,,,0.00,meteohub,2013-01-07 01:48:00,
2013-01-07 02:53:00,44.1,41.0,30.18,SSE,162,4.0,9.0,89,0.00,,,0.00,meteohub,2013-01-07 01:53:00,
2013-01-07 02:58:00,44.1,41.0,30.18,SSE,161,5.0,10.0,89,0.00,,,0.00,meteohub,2013-01-07 01:58:00,
2013-01-07 03:03:00,44.1,41.0,30.18,SE,146,10.0,10.0,89,0.00,,,0.00,meteohub,2013-01-07 02:03:00,
2013-01-07 03:08:00,44.1,41.0,30.18,South,169,6.0,12.0,89,0.00,,,0.00,meteohub,2013-01-07 02:08:00,
2013-01-07 03:14:00,43.9,40.8,30.18,South,187,2.0,12.0,89,0.00,,,0.00,meteohub,2013-01-07 02:14:00,
2013-01-07 03:19:00,43.9,40.8,30.18,SSW,212,3.0,12.0,89,0.00,,,0.00,meteohub,2013-01-07 02:19:00,
2013-01-07 03:24:00,43.9,40.8,30.18,SSE,155,12.0,13.0,89,0.00,,,0.00,meteohub,2013-01-07 02:24:00,
2013-01-07 03:29:00,43.7,40.6,30.18,South,178,4.0,13.0,89,0.00,,,0.00,meteohub,2013-01-07 02:29:00,
2013-01-07 03:34:00,43.5,40.8,30.18,South,175,7.0,13.0,90,0.00,,,0.00,meteohub,2013-01-07 02:34:00,
2013-01-07 03:39:00,43.7,40.6,30.18,SSE,167,4.0,12.0,89,0.00,,,0.00,meteohub,2013-01-07 02:39:00,
2013-01-07 03:44:00,43.5,40.5,30.18,SSE,148,6.0,12.0,89,0.00,,,0.00,meteohub,2013-01-07 02:44:00,
2013-01-07 03:49:00,43.5,40.5,30.18,SSE,164,5.0,12.0,89,0.00,,,0.00,meteohub,2013-01-07 02:49:00,
2013-01-07 03:55:00,43.5,40.5,30.18,SSE,150,2.0,12.0,89,0.00,,,0.00,meteohub,2013-01-07 02:55:00,
2013-01-07 04:00:00,43.5,40.5,30.19,SSE,162,2.0,10.0,89,0.00,,,0.00,meteohub,2013-01-07 03:00:00,
2013-01-07 04:05:00,43.5,40.5,30.19,South,169,2.0,12.0,89,0.00,,,0.00,meteohub,2013-01-07 03:05:00,
2013-01-07 04:10:00,43.5,40.5,30.19,South,169,4.0,12.0,89,0.00,,,0.00,meteohub,2013-01-07 03:10:00,
2013-01-07 04:15:00,43.5,40.5,30.19,SSE,161,5.0,12.0,89,0.00,,,0.00,meteohub,2013-01-07 03:15:00,
2013-01-07 04:20:00,43.5,40.3,30.19,SW,223,0.0,12.0,88,0.00,,,0.00,meteohub,2013-01-07 03:20:00,
2013-01-07 04:25:00,43.3,40.1,30.19,South,189,2.0,12.0,88,0.00,,,0.00,meteohub,2013-01-07 03:25:00,
2013-01-07 04:30:00,43.3,40.1,30.19,South,175,5.0,11.0,88,0.00,,,0.00,meteohub,2013-01-07 03:30:00,
2013-01-07 04:35:00,43.3,40.3,30.19,South,181,1.0,11.0,89,0.01,,,0.01,meteohub,2013-01-07 03:35:00,
2013-01-07 04:40:00,43.2,40.5,30.19,SSE,166,2.0,11.0,90,0.01,,,0.01,meteohub,2013-01-07 03:40:00,
2013-01-07 04:46:00,43.0,40.3,30.19,South,171,1.0,7.0,90,0.01,,,0.01,meteohub,2013-01-07 03:46:00,
2013-01-07 04:51:00,43.0,40.3,30.19,South,169,5.0,7.0,90,0.01,,,0.01,meteohub,2013-01-07 03:51:00,
2013-01-07 04:56:00,42.8,40.1,30.20,SSE,155,6.0,8.0,90,0.01,,,0.01,meteohub,2013-01-07 03:56:00,
2013-01-07 05:01:00,42.4,39.9,30.20,SE,146,8.0,8.0,91,0.02,,,0.02,meteohub,2013-01-07 04:01:00,
2013-01-07 05:06:00,42.3,40.1,30.20,SSE,164,4.0,8.0,92,0.02,,,0.02,meteohub,2013-01-07 04:06:00,
2013-01-07 05:11:00,42.3,40.1,30.20,South,182,3.0,8.0,92,0.02,,,0.02,meteohub,2013-01-07 04:11:00,
2013-01-07 05:16:00,42.1,40.3,30.20,SSE,163,2.0,10.0,93,0.03,,,0.03,meteohub,2013-01-07 04:16:00,
2013-01-07 05:21:00,41.9,40.1,30.20,SSE,167,2.0,11.0,93,0.04,,,0.03,meteohub,2013-01-07 04:21:00,
2013-01-07 05:26:00,41.7,39.9,30.20,SSE,162,2.0,11.0,93,0.04,,,0.04,meteohub,2013-01-07 04:26:00,
2013-01-07 05:32:00,41.5,39.9,30.21,South,190,4.0,11.0,94,0.03,,,0.04,meteohub,2013-01-07 04:32:00,
2013-01-07 05:37:00,41.5,39.9,30.21,South,184,2.0,10.0,94,0.03,,,0.04,meteohub,2013-01-07 04:37:00,
2013-01-07 05:42:00,41.5,39.9,30.21,SSE,166,5.0,10.0,94,0.03,,,0.04,meteohub,2013-01-07 04:42:00,
2013-01-07 05:47:00,41.4,40.1,30.21,WNW,284,2.0,9.0,95,0.03,,,0.04,meteohub,2013-01-07 04:47:00,
2013-01-07 05:52:00,41.2,39.9,30.21,SSW,201,0.0,8.0,95,0.04,,,0.05,meteohub,2013-01-07 04:52:00,
2013-01-07 05:57:00,41.0,39.7,30.22,WSW,252,3.0,8.0,95,0.03,,,0.05,meteohub,2013-01-07 04:57:00,
2013-01-07 06:00:00,40.8,39.6,30.22,SW,229,2.0,8.0,95,0.03,,,0.05,meteohub,2013-01-07 05:00:00,
2013-01-07 06:02:00,40.8,39.6,30.22,SSE,158,3.0,6.0,95,0.02,,,0.05,meteohub,2013-01-07 05:02:00,
2013-01-07 06:07:00,40.6,39.4,30.22,SSW,198,1.0,5.0,95,0.02,,,0.05,meteohub,2013-01-07 05:07:00,
2013-01-07 06:12:00,40.6,39.4,30.22,SSE,157,3.0,5.0,95,0.02,,,0.05,meteohub,2013-01-07 05:12:00,
2013-01-07 06:17:00,40.6,39.6,30.22,South,170,0.0,6.0,96,0.02,,,0.05,meteohub,2013-01-07 05:17:00,
2013-01-07 06:22:00,40.5,39.4,30.22,SSE,161,0.0,6.0,96,0.01,,,0.05,meteohub,2013-01-07 05:22:00,
2013-01-07 06:27:00,40.5,39.4,30.22,SSE,160,0.0,6.0,96,0.01,,,0.05,meteohub,2013-01-07 05:27:00,
2013-01-07 06:32:00,40.5,39.4,30.22,SSE,162,1.0,6.0,96,0.01,,,0.05,meteohub,2013-01-07 05:32:00,
2013-01-07 06:37:00,40.5,39.4,30.22,SSE,162,0.0,6.0,96,0.01,,,0.05,meteohub,2013-01-07 05:37:00,
2013-01-07 06:43:00,40.5,39.4,30.22,SSE,162,0.0,6.0,96,0.01,,,0.05,meteohub,2013-01-07 05:43:00,
2013-01-07 06:48:00,40.5,39.4,30.22,SSW,196,1.0,2.0,96,0.00,,,0.05,meteohub,2013-01-07 05:48:00,
2013-01-07 06:53:00,40.5,39.4,30.22,SSW,213,0.0,2.0,96,0.00,,,0.05,meteohub,2013-01-07 05:53:00,
2013-01-07 06:58:00,40.5,39.4,30.23,South,177,1.0,4.0,96,0.00,,,0.05,meteohub,2013-01-07 05:58:00,
2013-01-07 07:03:00,40.5,39.4,30.23,SW,217,0.0,4.0,96,0.00,,,0.05,meteohub,2013-01-07 06:03:00,
2013-01-07 07:08:00,40.5,39.4,30.23,SSW,213,1.0,4.0,96,0.00,,,0.05,meteohub,2013-01-07 06:08:00,
2013-01-07 07:13:00,40.5,39.4,30.23,SSE,165,4.0,4.0,96,0.00,,,0.05,meteohub,2013-01-07 06:13:00,
2013-01-07 07:18:00,40.5,39.4,30.23,SSW,205,1.0,4.0,96,0.01,,,0.06,meteohub,2013-01-07 06:18:00,
2013-01-07 07:23:00,40.5,39.4,30.23,SSE,167,1.0,5.0,96,0.01,,,0.06,meteohub,2013-01-07 06:23:00,
2013-01-07 07:29:00,40.3,39.2,30.23,SSW,194,1.0,5.0,96,0.01,,,0.06,meteohub,2013-01-07 06:29:00,
2013-01-07 07:34:00,40.3,39.2,30.24,South,171,1.0,4.0,96,0.01,,,0.06,meteohub,2013-01-07 06:34:00,
2013-01-07 07:39:00,40.3,39.2,30.24,SSE,164,3.0,4.0,96,0.02,,,0.06,meteohub,2013-01-07 06:39:00,
2013-01-07 07:44:00,40.3,39.2,30.24,SSE,163,3.0,6.0,96,0.02,,,0.06,meteohub,2013-01-07 06:44:00,
2013-01-07 07:49:00,40.3,39.2,30.24,South,175,3.0,6.0,96,0.02,,,0.06,meteohub,2013-01-07 06:49:00,
2013-01-07 07:54:00,40.3,39.2,30.24,SSW,211,1.0,6.0,96,0.02,,,0.06,meteohub,2013-01-07 06:54:00,
2013-01-07 07:59:00,40.1,39.0,30.24,South,176,1.0,6.0,96,0.02,,,0.06,meteohub,2013-01-07 06:59:00,
2013-01-07 08:04:00,40.1,39.0,30.25,South,171,5.0,6.0,96,0.02,,,0.06,meteohub,2013-01-07 07:04:00,
2013-01-07 08:09:00,39.9,38.8,30.24,SSW,203,1.0,8.0,96,0.02,,,0.06,meteohub,2013-01-07 07:09:00,
2013-01-07 08:15:00,39.9,38.8,30.25,SSE,168,4.0,9.0,96,0.02,,,0.06,meteohub,2013-01-07 07:15:00,
2013-01-07 08:20:00,39.9,38.8,30.24,SSW,196,1.0,9.0,96,0.01,,,0.07,meteohub,2013-01-07 07:20:00,
2013-01-07 08:25:00,39.9,38.8,30.25,South,169,0.0,6.0,96,0.02,,,0.07,meteohub,2013-01-07 07:25:00,
2013-01-07 08:30:00,39.9,38.8,30.25,SSW,205,1.0,6.0,96,0.01,,,0.07,meteohub,2013-01-07 07:30:00,
2013-01-07 08:35:00,39.9,38.8,30.25,South,182,1.0,4.0,96,0.01,,,0.07,meteohub,2013-01-07 07:35:00,
2013-01-07 08:40:00,39.9,38.8,30.25,South,171,2.0,6.0,96,0.01,,,0.07,meteohub,2013-01-07 07:40:00,
2013-01-07 08:45:00,39.9,38.8,30.25,SSE,159,4.0,6.0,96,0.01,,,0.07,meteohub,2013-01-07 07:45:00,
2013-01-07 08:51:00,39.7,38.7,30.25,South,178,2.0,6.0,96,0.01,,,0.07,meteohub,2013-01-07 07:51:00,
2013-01-07 08:56:00,39.7,38.7,30.25,SSE,160,2.0,6.0,96,0.01,,,0.07,meteohub,2013-01-07 07:56:00,
2013-01-07 09:01:00,39.7,38.7,30.26,SSE,161,2.0,6.0,96,0.01,,,0.07,meteohub,2013-01-07 08:01:00,
2013-01-07 09:06:00,39.7,38.7,30.26,South,171,0.0,6.0,96,0.01,,,0.07,meteohub,2013-01-07 08:06:00,
2013-01-07 09:11:00,39.7,38.7,30.26,SSE,161,3.0,5.0,96,0.01,,,0.07,meteohub,2013-01-07 08:11:00,
2013-01-07 09:16:00,39.7,38.7,30.26,South,169,0.0,5.0,96,0.01,,,0.07,meteohub,2013-01-07 08:16:00,
2013-01-07 09:21:00,39.7,38.7,30.26,SSE,163,2.0,5.0,96,0.00,,,0.07,meteohub,2013-01-07 08:21:00,
2013-01-07 09:26:00,39.7,38.7,30.27,SSE,163,1.0,5.0,96,0.00,,,0.07,meteohub,2013-01-07 08:26:00,
2013-01-07 09:32:00,39.7,38.7,30.27,SSE,153,2.0,6.0,96,0.00,,,0.07,meteohub,2013-01-07 08:32:00,
2013-01-07 09:37:00,39.7,38.7,30.27,SSE,163,1.0,6.0,96,0.00,,,0.07,meteohub,2013-01-07 08:37:00,
2013-01-07 09:42:00,39.6,38.5,30.27,South,169,1.0,6.0,96,0.00,,,0.07,meteohub,2013-01-07 08:42:00,
2013-01-07 09:47:00,39.6,38.5,30.27,South,169,0.0,6.0,96,0.00,,,0.07,meteohub,2013-01-07 08:47:00,
2013-01-07 09:52:00,39.6,38.5,30.27,South,177,0.0,4.0,96,0.00,,,0.07,meteohub,2013-01-07 08:52:00,
2013-01-07 09:57:00,39.6,38.5,30.27,South,172,0.0,4.0,96,0.00,,,0.07,meteohub,2013-01-07 08:57:00,
2013-01-07 10:02:00,39.6,38.5,30.28,South,172,0.0,4.0,96,0.01,,,0.07,meteohub,2013-01-07 09:02:00,
2013-01-07 10:07:00,39.6,38.5,30.28,SSW,195,0.0,4.0,96,0.01,,,0.08,meteohub,2013-01-07 09:07:00,
2013-01-07 10:13:00,39.6,38.5,30.28,SSW,213,0.0,6.0,96,0.01,,,0.08,meteohub,2013-01-07 09:13:00,
2013-01-07 10:18:00,39.7,38.7,30.28,SSW,207,0.0,6.0,96,0.01,,,0.08,meteohub,2013-01-07 09:18:00,
2013-01-07 10:23:00,39.7,38.7,30.29,NW,326,0.0,1.0,96,0.01,,,0.08,meteohub,2013-01-07 09:23:00,
2013-01-07 10:28:00,39.6,38.8,30.28,South,184,0.0,2.0,97,0.01,,,0.08,meteohub,2013-01-07 09:28:00,
2013-01-07 10:33:00,39.6,38.8,30.29,NW,310,0.0,2.0,97,0.02,,,0.09,meteohub,2013-01-07 09:33:00,
2013-01-07 10:38:00,39.6,38.8,30.28,NNE,28,2.0,2.0,97,0.02,,,0.09,meteohub,2013-01-07 09:38:00,
2013-01-07 10:43:00,39.4,38.3,30.28,North,355,3.0,3.0,96,0.02,,,0.09,meteohub,2013-01-07 09:43:00,
2013-01-07 10:48:00,39.0,37.9,30.29,NNW,342,0.0,4.0,96,0.02,,,0.09,meteohub,2013-01-07 09:48:00,
2013-01-07 10:54:00,39.0,37.9,30.29,North,355,2.0,4.0,96,0.02,,,0.09,meteohub,2013-01-07 09:54:00,
2013-01-07 10:59:00,39.0,37.9,30.29,North,351,4.0,4.0,96,0.02,,,0.09,meteohub,2013-01-07 09:59:00,
2013-01-07 11:04:00,38.8,37.8,30.29,North,355,0.0,3.0,96,0.01,,,0.09,meteohub,2013-01-07 10:04:00,
2013-01-07 11:09:00,38.7,37.6,30.29,North,355,2.0,4.0,96,0.01,,,0.09,meteohub,2013-01-07 10:09:00,
2013-01-07 11:14:00,38.7,37.6,30.29,North,5,0.0,4.0,96,0.01,,,0.09,meteohub,2013-01-07 10:14:00,
2013-01-07 11:19:00,38.5,37.4,30.29,North,355,0.0,4.0,96,0.02,,,0.09,meteohub,2013-01-07 10:19:00,
2013-01-07 11:24:00,38.5,37.4,30.29,North,355,2.0,4.0,96,0.02,,,0.09,meteohub,2013-01-07 10:24:00,
2013-01-07 11:29:00,38.5,37.4,30.29,North,355,1.0,4.0,96,0.01,,,0.09,meteohub,2013-01-07 10:29:00,
2013-01-07 11:34:00,38.5,37.4,30.29,North,355,0.0,3.0,96,0.02,,,0.10,meteohub,2013-01-07 10:34:00,
2013-01-07 11:40:00,38.1,37.0,30.29,North,9,0.0,3.0,96,0.02,,,0.10,meteohub,2013-01-07 10:40:00,
2013-01-07 11:45:00,37.9,36.9,30.29,North,355,0.0,3.0,96,0.02,,,0.10,meteohub,2013-01-07 10:45:00,
2013-01-07 11:50:00,38.1,37.0,30.29,North,355,0.0,4.0,96,0.02,,,0.11,meteohub,2013-01-07 10:50:00,
2013-01-07 11:55:00,38.1,37.0,30.29,North,355,0.0,4.0,96,0.02,,,0.11,meteohub,2013-01-07 10:55:00,
2013-01-07 12:00:00,38.1,37.0,30.29,North,355,2.0,2.0,96,0.02,,,0.11,meteohub,2013-01-07 11:00:00,
2013-01-07 12:05:00,37.9,36.9,30.29,North,355,1.0,2.0,96,0.02,,,0.11,meteohub,2013-01-07 11:05:00,
2013-01-07 12:10:00,37.9,36.9,30.29,North,355,0.0,2.0,96,0.02,,,0.11,meteohub,2013-01-07 11:10:00,
2013-01-07 12:15:00,37.9,36.9,30.29,North,355,1.0,2.0,96,0.02,,,0.11,meteohub,2013-01-07 11:15:00,
2013-01-07 12:21:00,37.9,36.9,30.29,North,355,1.0,2.0,96,0.02,,,0.12,meteohub,2013-01-07 11:21:00,
2013-01-07 12:26:00,37.9,36.9,30.29,North,355,1.0,3.0,96,0.02,,,0.12,meteohub,2013-01-07 11:26:00,
2013-01-07 12:31:00,38.1,37.0,30.29,North,355,0.0,3.0,96,0.02,,,0.12,meteohub,2013-01-07 11:31:00,
2013-01-07 12:36:00,38.1,37.0,30.29,North,355,0.0,3.0,96,0.02,,,0.12,meteohub,2013-01-07 11:36:00,
2013-01-07 12:41:00,38.5,37.4,30.28,North,355,0.0,2.0,96,0.02,,,0.12,meteohub,2013-01-07 11:41:00,
2013-01-07 12:46:00,38.5,37.4,30.28,North,355,0.0,1.0,96,0.02,,,0.12,meteohub,2013-01-07 11:46:00,
2013-01-07 12:51:00,38.5,37.4,30.28,SSE,149,0.0,2.0,96,0.02,,,0.13,meteohub,2013-01-07 11:51:00,
2013-01-07 12:57:00,38.5,37.4,30.28,SSE,149,0.0,2.0,96,0.02,,,0.13,meteohub,2013-01-07 11:57:00,
2013-01-07 13:02:00,38.7,37.6,30.28,SSE,149,0.0,2.0,96,0.02,,,0.13,meteohub,2013-01-07 12:02:00,
2013-01-07 13:07:00,38.7,37.6,30.28,SSE,149,1.0,2.0,96,0.02,,,0.13,meteohub,2013-01-07 12:07:00,
2013-01-07 13:12:00,38.8,37.8,30.28,SSE,154,0.0,2.0,96,0.02,,,0.13,meteohub,2013-01-07 12:12:00,
2013-01-07 13:17:00,39.0,37.9,30.28,SSE,154,0.0,2.0,96,0.02,,,0.13,meteohub,2013-01-07 12:17:00,
2013-01-07 13:22:00,39.0,37.9,30.28,SSE,154,0.0,2.0,96,0.01,,,0.13,meteohub,2013-01-07 12:22:00,
2013-01-07 13:28:00,39.2,38.1,30.28,SSE,154,0.0,2.0,96,0.01,,,0.13,meteohub,2013-01-07 12:28:00,
2013-01-07 13:33:00,39.4,38.3,30.28,SSE,154,0.0,2.0,96,0.01,,,0.13,meteohub,2013-01-07 12:33:00,
2013-01-07 13:38:00,39.4,38.3,30.28,SSE,155,0.0,2.0,96,0.01,,,0.13,meteohub,2013-01-07 12:38:00,
2013-01-07 13:43:00,39.4,38.3,30.28,SSE,157,0.0,2.0,96,0.01,,,0.13,meteohub,2013-01-07 12:43:00,
2013-01-07 13:48:00,39.6,38.5,30.28,SSE,158,0.0,4.0,96,0.00,,,0.13,meteohub,2013-01-07 12:48:00,
2013-01-07 13:53:00,39.6,38.3,30.28,SSE,158,0.0,4.0,95,0.00,,,0.13,meteohub,2013-01-07 12:53:00,
2013-01-07 13:58:00,39.6,38.3,30.28,SSE,155,0.0,4.0,95,0.00,,,0.13,meteohub,2013-01-07 12:58:00,
2013-01-07 14:04:00,39.6,38.3,30.28,SSE,167,1.0,6.0,95,0.00,,,0.13,meteohub,2013-01-07 13:04:00,
2013-01-07 14:09:00,39.6,38.3,30.28,SSE,167,2.0,6.0,95,0.00,,,0.13,meteohub,2013-01-07 13:09:00,
2013-01-07 14:14:00,39.6,38.3,30.28,South,173,1.0,6.0,95,0.00,,,0.13,meteohub,2013-01-07 13:14:00,
2013-01-07 14:19:00,39.6,38.3,30.28,South,173,0.0,2.0,95,0.00,,,0.13,meteohub,2013-01-07 13:19:00,
2013-01-07 14:24:00,39.6,38.3,30.29,South,173,1.0,2.0,95,0.00,,,0.13,meteohub,2013-01-07 13:24:00,
2013-01-07 14:29:00,39.6,37.9,30.28,South,173,0.0,2.0,94,0.00,,,0.13,meteohub,2013-01-07 13:29:00,
2013-01-07 14:34:00,39.6,38.3,30.29,South,173,0.0,2.0,95,0.00,,,0.13,meteohub,2013-01-07 13:34:00,
2013-01-07 14:39:00,39.7,38.5,30.29,South,171,1.0,2.0,95,0.00,,,0.13,meteohub,2013-01-07 13:39:00,
2013-01-07 14:44:00,39.7,38.5,30.29,NNW,344,0.0,2.0,95,0.00,,,0.13,meteohub,2013-01-07 13:44:00,
2013-01-07 14:50:00,39.7,38.5,30.28,NNW,344,0.0,4.0,95,0.00,,,0.13,meteohub,2013-01-07 13:50:00,
2013-01-07 14:55:00,39.6,38.3,30.29,NNW,344,0.0,3.0,95,0.01,,,0.13,meteohub,2013-01-07 13:55:00,
2013-01-07 15:00:00,39.6,38.3,30.29,NNW,344,0.0,2.0,95,0.01,,,0.13,meteohub,2013-01-07 14:00:00,
2013-01-07 15:05:00,39.4,38.1,30.29,North,355,2.0,4.0,95,0.01,,,0.13,meteohub,2013-01-07 14:05:00,
2013-01-07 15:10:00,39.0,37.8,30.28,North,350,1.0,4.0,95,0.01,,,0.13,meteohub,2013-01-07 14:10:00,
2013-01-07 15:15:00,39.2,37.9,30.28,NNW,348,0.0,4.0,95,0.01,,,0.13,meteohub,2013-01-07 14:15:00,
2013-01-07 15:20:00,39.0,37.8,30.28,NNW,332,2.0,4.0,95,0.01,,,0.13,meteohub,2013-01-07 14:20:00,
2013-01-07 15:25:00,39.0,37.8,30.28,North,355,0.0,4.0,95,0.01,,,0.13,meteohub,2013-01-07 14:25:00,
2013-01-07 15:31:00,39.0,37.8,30.28,North,350,2.0,4.0,95,0.01,,,0.13,meteohub,2013-01-07 14:31:00,
2013-01-07 15:36:00,38.8,37.2,30.28,NNW,345,0.0,4.0,94,0.01,,,0.13,meteohub,2013-01-07 14:36:00,
2013-01-07 15:41:00,38.8,37.6,30.28,North,355,3.0,4.0,95,0.01,,,0.13,meteohub,2013-01-07 14:41:00,
2013-01-07 15:46:00,38.8,37.2,30.29,North,355,0.0,4.0,94,0.01,,,0.13,meteohub,2013-01-07 14:46:00,
2013-01-07 15:51:00,38.8,37.6,30.29,North,355,0.0,4.0,95,0.01,,,0.13,meteohub,2013-01-07 14:51:00,
2013-01-07 15:57:00,38.7,37.4,30.29,North,355,0.0,4.0,95,0.00,,,0.13,meteohub,2013-01-07 14:57:00,
2013-01-07 16:02:00,38.7,37.0,30.29,NNW,344,0.0,3.0,94,0.00,,,0.13,meteohub,2013-01-07 15:02:00,
2013-01-07 16:07:00,38.7,37.0,30.29,NNW,344,0.0,5.0,94,0.00,,,0.13,meteohub,2013-01-07 15:07:00,
2013-01-07 16:12:00,38.7,37.4,30.29,NNW,344,0.0,5.0,95,0.01,,,0.14,meteohub,2013-01-07 15:12:00,
2013-01-07 16:17:00,38.7,37.4,30.30,NNW,344,0.0,4.0,95,0.01,,,0.14,meteohub,2013-01-07 15:17:00,
2013-01-07 16:22:00,38.7,37.4,30.29,NNW,344,0.0,2.0,95,0.01,,,0.14,meteohub,2013-01-07 15:22:00,
2013-01-07 16:27:00,38.7,37.4,30.29,NNW,344,0.0,1.0,95,0.02,,,0.15,meteohub,2013-01-07 15:27:00,
2013-01-07 16:32:00,38.7,37.4,30.29,North,355,1.0,1.0,95,0.02,,,0.15,meteohub,2013-01-07 15:32:00,
2013-01-07 16:38:00,38.7,37.4,30.29,North,0,1.0,3.0,95,0.02,,,0.15,meteohub,2013-01-07 15:38:00,
2013-01-07 16:43:00,38.7,37.4,30.29,North,0,0.0,3.0,95,0.02,,,0.15,meteohub,2013-01-07 15:43:00,
2013-01-07 16:48:00,38.7,37.4,30.29,North,0,0.0,3.0,95,0.02,,,0.15,meteohub,2013-01-07 15:48:00,
2013-01-07 16:53:00,38.7,37.4,30.29,North,0,0.0,2.0,95,0.02,,,0.15,meteohub,2013-01-07 15:53:00,
2013-01-07 16:58:00,38.7,37.4,30.30,North,0,1.0,2.0,95,0.02,,,0.15,meteohub,2013-01-07 15:58:00,
2013-01-07 17:03:00,38.7,37.4,30.30,NNW,343,0.0,2.0,95,0.02,,,0.15,meteohub,2013-01-07 16:03:00,
2013-01-07 17:08:00,38.7,37.4,30.30,NNW,343,0.0,4.0,95,0.02,,,0.15,meteohub,2013-01-07 16:08:00,
2013-01-07 17:13:00,38.7,37.4,30.30,NNW,343,0.0,4.0,95,0.01,,,0.15,meteohub,2013-01-07 16:13:00,
2013-01-07 17:18:00,38.7,37.4,30.30,NNW,343,0.0,4.0,95,0.01,,,0.15,meteohub,2013-01-07 16:18:00,
2013-01-07 17:24:00,38.8,37.6,30.30,NNW,343,0.0,2.0,95,0.01,,,0.15,meteohub,2013-01-07 16:24:00,
2013-01-07 17:29:00,38.8,37.8,30.30,NNW,343,0.0,1.0,96,0.00,,,0.15,meteohub,2013-01-07 16:29:00,
2013-01-07 17:34:00,38.8,37.8,30.30,NNW,343,0.0,1.0,96,0.00,,,0.15,meteohub,2013-01-07 16:34:00,
2013-01-07 17:39:00,38.8,37.8,30.29,NNW,343,0.0,1.0,96,0.00,,,0.15,meteohub,2013-01-07 16:39:00,
2013-01-07 17:44:00,38.8,37.8,30.29,NNW,343,0.0,1.0,96,0.00,,,0.15,meteohub,2013-01-07 16:44:00,
2013-01-07 17:49:00,38.8,37.8,30.29,NNW,343,0.0,1.0,96,0.00,,,0.15,meteohub,2013-01-07 16:49:00,
2013-01-07 17:54:00,38.8,37.8,30.29,NNW,343,0.0,1.0,96,0.00,,,0.15,meteohub,2013-01-07 16:54:00,
2013-01-07 17:59:00,38.8,37.8,30.29,NNW,343,0.0,2.0,96,0.00,,,0.15,meteohub,2013-01-07 16:59:00,
2013-01-07 18:04:00,38.8,37.8,30.29,NNW,343,0.0,2.0,96,0.00,,,0.15,meteohub,2013-01-07 17:04:00,
2013-01-07 18:10:00,38.7,37.6,30.29,NNW,343,2.0,2.0,96,0.00,,,0.15,meteohub,2013-01-07 17:10:00,
2013-01-07 18:15:00,38.7,37.6,30.29,North,350,1.0,2.0,96,0.00,,,0.15,meteohub,2013-01-07 17:15:00,
2013-01-07 18:20:00,38.7,37.6,30.28,North,355,1.0,2.0,96,0.00,,,0.15,meteohub,2013-01-07 17:20:00,
2013-01-07 18:25:00,38.7,37.6,30.29,North,355,2.0,5.0,96,0.00,,,0.15,meteohub,2013-01-07 17:25:00,
2013-01-07 18:30:00,38.7,37.6,30.29,North,355,2.0,5.0,96,0.00,,,0.15,meteohub,2013-01-07 17:30:00,
2013-01-07 18:35:00,38.7,37.6,30.29,North,355,0.0,4.0,96,0.00,,,0.15,meteohub,2013-01-07 17:35:00,
2013-01-07 18:40:00,38.5,37.4,30.29,NNE,18,0.0,4.0,96,0.00,,,0.15,meteohub,2013-01-07 17:40:00,
2013-01-07 18:45:00,38.7,37.6,30.29,NNE,17,1.0,4.0,96,0.00,,,0.15,meteohub,2013-01-07 17:45:00,
2013-01-07 18:50:00,38.7,37.6,30.29,NNE,16,0.0,4.0,96,0.00,,,0.15,meteohub,2013-01-07 17:50:00,
2013-01-07 18:55:00,38.7,37.6,30.29,NNE,16,0.0,2.0,96,0.00,,,0.15,meteohub,2013-01-07 17:55:00,
2013-01-07 19:01:00,38.7,37.6,30.30,NNE,16,0.0,1.0,96,0.00,,,0.15,meteohub,2013-01-07 18:01:00,
2013-01-07 19:06:00,38.7,37.6,30.30,NNE,15,0.0,1.0,96,0.00,,,0.15,meteohub,2013-01-07 18:06:00,
2013-01-07 19:11:00,38.7,37.6,30.30,NNE,15,0.0,1.0,96,0.00,,,0.15,meteohub,2013-01-07 18:11:00,
2013-01-07 19:16:00,38.7,37.6,30.30,NNE,15,0.0,1.0,96,0.00,,,0.15,meteohub,2013-01-07 18:16:00,
2013-01-07 19:21:00,38.7,37.6,30.30,NNE,15,0.0,0.0,96,0.00,,,0.15,meteohub,2013-01-07 18:21:00,
2013-01-07 19:26:00,38.8,37.8,30.30,NNE,15,0.0,0.0,96,0.00,,,0.15,meteohub,2013-01-07 18:26:00,
2013-01-07 19:31:00,38.8,37.8,30.30,NNE,15,0.0,0.0,96,0.00,,,0.15,meteohub,2013-01-07 18:31:00,
2013-01-07 19:36:00,38.8,37.8,30.31,NNE,15,0.0,0.0,96,0.00,,,0.15,meteohub,2013-01-07 18:36:00,
2013-01-07 19:41:00,38.8,37.8,30.31,NNE,15,0.0,0.0,96,0.00,,,0.15,meteohub,2013-01-07 18:41:00,
2013-01-07 19:47:00,38.8,37.8,30.31,NNE,15,0.0,0.0,96,0.00,,,0.15,meteohub,2013-01-07 18:47:00,
2013-01-07 19:52:00,38.8,37.8,30.31,NNE,15,0.0,0.0,96,0.00,,,0.15,meteohub,2013-01-07 18:52:00,
2013-01-07 19:57:00,38.7,37.6,30.31,NNE,15,0.0,1.0,96,0.00,,,0.15,meteohub,2013-01-07 18:57:00,
2013-01-07 20:02:00,38.8,37.8,30.31,NNE,15,0.0,1.0,96,0.00,,,0.15,meteohub,2013-01-07 19:02:00,
2013-01-07 20:07:00,38.7,37.6,30.31,NNE,15,0.0,1.0,96,0.00,,,0.15,meteohub,2013-01-07 19:07:00,
2013-01-07 20:12:00,38.7,37.6,30.31,NNE,15,0.0,1.0,96,0.00,,,0.15,meteohub,2013-01-07 19:12:00,
2013-01-07 20:17:00,38.7,37.6,30.31,NNE,15,0.0,1.0,96,0.00,,,0.15,meteohub,2013-01-07 19:17:00,
2013-01-07 20:22:00,38.7,37.6,30.30,NNE,15,0.0,1.0,96,0.00,,,0.15,meteohub,2013-01-07 19:22:00,
2013-01-07 20:27:00,38.7,37.6,30.30,NNE,15,0.0,1.0,96,0.00,,,0.15,meteohub,2013-01-07 19:27:00,
2013-01-07 20:32:00,38.7,37.6,30.30,NNE,15,0.0,1.0,96,0.00,,,0.15,meteohub,2013-01-07 19:32:00,
2013-01-07 20:37:00,38.7,37.6,30.30,NNE,15,0.0,1.0,96,0.00,,,0.15,meteohub,2013-01-07 19:37:00,
2013-01-07 20:42:00,38.7,37.6,30.30,NNE,15,0.0,0.0,96,0.00,,,0.15,meteohub,2013-01-07 19:42:00,
2013-01-07 20:47:00,38.7,37.6,30.30,NNE,15,0.0,0.0,96,0.00,,,0.15,meteohub,2013-01-07 19:47:00,
2013-01-07 20:52:00,38.7,37.6,30.30,NNE,15,0.0,0.0,96,0.00,,,0.15,meteohub,2013-01-07 19:52:00,
2013-01-07 20:57:00,38.7,37.6,30.30,NNE,15,0.0,0.0,96,0.00,,,0.15,meteohub,2013-01-07 19:57:00,
2013-01-07 21:02:00,38.7,37.6,30.30,NNE,15,0.0,0.0,96,0.00,,,0.15,meteohub,2013-01-07 20:02:00,
2013-01-07 21:07:00,38.7,37.6,30.30,NNE,15,0.0,1.0,96,0.00,,,0.15,meteohub,2013-01-07 20:07:00,
2013-01-07 21:13:00,38.7,37.6,30.30,NNE,15,0.0,1.0,96,0.00,,,0.15,meteohub,2013-01-07 20:13:00,
2013-01-07 21:18:00,38.7,37.6,30.30,NNE,15,0.0,1.0,96,0.00,,,0.15,meteohub,2013-01-07 20:18:00,
2013-01-07 21:19:00,38.5,37.4,30.30,NNE,15,0.0,1.0,96,0.00,,,0.15,meteohub,2013-01-07 20:19:00,
2013-01-07 21:24:00,38.5,37.4,30.30,NNE,15,0.0,1.0,96,0.00,,,0.15,meteohub,2013-01-07 20:24:00,
2013-01-07 21:30:00,38.3,37.2,30.31,NNE,15,0.0,1.0,96,0.00,,,0.15,meteohub,2013-01-07 20:30:00,
2013-01-07 21:35:00,38.3,37.2,30.31,NNE,15,0.0,0.0,96,0.00,,,0.15,meteohub,2013-01-07 20:35:00,
2013-01-07 21:40:00,38.3,37.2,30.30,NNE,15,0.0,0.0,96,0.00,,,0.15,meteohub,2013-01-07 20:40:00,
2013-01-07 21:45:00,38.5,37.4,30.30,NNE,15,0.0,1.0,96,0.00,,,0.15,meteohub,2013-01-07 20:45:00,
2013-01-07 21:50:00,38.5,37.4,30.30,NNE,14,0.0,2.0,96,0.00,,,0.15,meteohub,2013-01-07 20:50:00,
2013-01-07 21:55:00,38.5,37.4,30.30,North,9,0.0,2.0,96,0.00,,,0.15,meteohub,2013-01-07 20:55:00,
2013-01-07 22:00:00,38.5,37.4,30.30,North,10,0.0,2.0,96,0.00,,,0.15,meteohub,2013-01-07 21:00:00,
2013-01-07 22:05:00,38.7,37.6,30.30,NNE,26,0.0,1.0,96,0.00,,,0.15,meteohub,2013-01-07 21:05:00,
2013-01-07 22:11:00,38.7,37.6,30.30,NNE,26,0.0,1.0,96,0.00,,,0.15,meteohub,2013-01-07 21:11:00,
2013-01-07 22:16:00,38.7,37.6,30.30,NNE,26,0.0,1.0,96,0.00,,,0.15,meteohub,2013-01-07 21:16:00,
2013-01-07 22:21:00,38.7,37.9,30.30,NNE,13,0.0,1.0,97,0.00,,,0.15,meteohub,2013-01-07 21:21:00,
2013-01-07 22:26:00,38.7,37.6,30.30,NNE,21,0.0,1.0,96,0.00,,,0.15,meteohub,2013-01-07 21:26:00,
2013-01-07 22:31:00,38.7,37.9,30.30,NE,36,0.0,1.0,97,0.00,,,0.15,meteohub,2013-01-07 21:31:00,
2013-01-07 22:36:00,38.7,37.9,30.30,NE,36,1.0,1.0,97,0.00,,,0.15,meteohub,2013-01-07 21:36:00,
2013-01-07 22:41:00,38.7,37.9,30.30,NE,34,0.0,1.0,97,0.00,,,0.15,meteohub,2013-01-07 21:41:00,
2013-01-07 22:47:00,38.7,37.9,30.30,NE,34,0.0,1.0,97,0.00,,,0.15,meteohub,2013-01-07 21:47:00,
2013-01-07 22:52:00,38.7,37.9,30.30,NE,34,0.0,1.0,97,0.00,,,0.15,meteohub,2013-01-07 21:52:00,
2013-01-07 22:57:00,38.7,37.9,30.29,NE,34,0.0,1.0,97,0.00,,,0.15,meteohub,2013-01-07 21:57:00,
2013-01-07 23:02:00,38.7,37.9,30.29,NE,34,0.0,1.0,97,0.00,,,0.15,meteohub,2013-01-07 22:02:00,
2013-01-07 23:07:00,38.7,37.9,30.29,NE,34,0.0,1.0,97,0.00,,,0.15,meteohub,2013-01-07 22:07:00,
2013-01-07 23:12:00,38.7,37.9,30.29,NNE,33,0.0,1.0,97,0.00,,,0.15,meteohub,2013-01-07 22:12:00,
2013-01-07 23:17:00,38.7,37.9,30.29,SSE,163,0.0,1.0,97,0.00,,,0.15,meteohub,2013-01-07 22:17:00,
2013-01-07 23:22:00,38.7,37.9,30.29,SSE,163,0.0,2.0,97,0.00,,,0.15,meteohub,2013-01-07 22:22:00,
2013-01-07 23:28:00,38.7,37.9,30.29,SSE,163,0.0,2.0,97,0.00,,,0.15,meteohub,2013-01-07 22:28:00,
2013-01-07 23:33:00,38.7,37.9,30.29,SSE,163,0.0,1.0,97,0.00,,,0.15,meteohub,2013-01-07 22:33:00,
2013-01-07 23:38:00,38.7,37.9,30.28,SSE,163,0.0,1.0,97,0.00,,,0.15,meteohub,2013-01-07 22:38:00,
2013-01-07 23:43:00,38.7,37.9,30.29,SSE,163,0.0,1.0,97,0.00,,,0.15,meteohub,2013-01-07 22:43:00,
2013-01-07 23:48:00,38.7,37.9,30.28,SSE,163,0.0,1.0,97,0.00,,,0.15,meteohub,2013-01-07 22:48:00,
2013-01-07 23:53:00,38.7,37.9,30.28,SSE,163,0.0,1.0,97,0.00,,,0.15,meteohub,2013-01-07 22:53:00,
2013-01-07 23:58:00,38.7,37.9,30.27,SSE,163,0.0,1.0,97,0.00,,,0.15,meteohub,2013-01-07 22:58:00,